[[{"header":{"parameterUnit":"m.s-1","parameterCategory":1,"la1":30.2991,"la2":30.254,"lo1":-89.0895,"lo2":-89.0444,"dy":0.0017,"dx":0.0017,"nx":28,"ny":28,"refTime":"2026-02-02T03:00:00:Z","depth":0,"parameterNumber":2,"parameterNumberName":"U-component_of_WINDS"},"data":[0,0,0,0,0,0,0,0,0,0,0,0,0,0,0,0,0,0,0,0,0,0,0,0,0,0,0,0,0,0,0,0,0,0,0,0,0,0,0,0,0,0,0,0,0,0,0,0,0,0,0,0,0,0,0,0,0,0,1.3467,1.3468,0,1.3537,1.3538,1.3539,1.3551,1.3551,1.355,1.355,1.3619,1.3621,1.3624,0,0,0,0,0,0,0,0,0,0,0,0,0,1.3344,1.3346,1.3467,1.3468,1.3469,1.3537,1.3538,1.3539,1.3551,1.3551,1.355,1.3549,1.3618,1.3621,1.3624,0,0,0,0,0,0,0,0,0,0,0,0,0,1.3404,1.3347,1.3467,1.3483,1.3486,1.3537,1.3538,1.3539,1.3552,1.3551,1.355,1.3549,1.3617,1.3621,1.3624,1.3663,0,0,1.3635,1.3637,0,0,0,0,0,0,0,0,1.34,1.3408,1.348,1.3482,1.3485,1.3535,1.352,1.3581,1.3552,1.3526,1.355,1.3549,1.3591,1.3597,1.3612,1.3666,1.3669,1.3635,1.3638,1.3639,1.364,0,0,0,0,0,0,0,1.3396,1.3405,1.3495,1.3481,1.3484,1.3487,1.3495,1.3531,1.3563,1.3529,1.353,1.3538,1.3593,1.3609,1.3614,1.367,1.3635,1.3638,1.3641,1.3642,1.3761,1.3762,0,0,0,0,0,0,1.3389,1.3402,1.3492,1.3497,1.344,1.349,1.3498,1.3519,1.3562,1.3568,1.3539,1.3538,1.3603,1.361,1.3616,1.3665,1.3639,1.3642,1.3644,1.376,1.3762,1.3763,0,0,0,0,0,0,1.3386,1.3397,1.349,1.345,1.3462,1.3493,1.3517,1.3521,1.3537,1.357,1.3575,1.3549,1.3602,1.3611,1.3652,1.3668,1.3644,1.3647,1.3759,1.3761,1.3762,1.3763,0,0,0,0,0,0,1.3383,1.3396,1.3411,1.345,1.3464,1.3524,1.3518,1.3523,1.3544,1.3544,1.3581,1.3587,1.3602,1.3646,1.3655,1.3672,1.365,1.3758,1.376,1.3762,1.3762,1.3764,1.3767,0,0,0,0,0,1.3378,1.3408,1.3412,1.3423,1.3484,1.3525,1.3533,1.3551,1.3545,1.356,1.3582,1.3586,1.3665,1.365,1.3661,1.3679,1.3757,1.3759,1.3761,1.3761,1.3764,1.3767,0,0,0,0,0,0,1.3369,1.3413,1.3418,1.3461,1.349,1.3527,1.3547,1.3554,1.3584,1.3583,1.3603,1.3612,1.3651,1.3669,1.3653,1.3719,1.371,1.3715,1.3706,1.371,1.3712,1.3707,1.3653,0,0,0,0,0,1.3373,1.3403,1.344,1.3474,1.3489,1.3516,1.3534,1.3546,1.3576,1.3588,1.3612,1.364,1.3671,1.3691,1.3722,1.3765,1.3773,1.3782,1.3785,1.3787,1.379,1.3815,1.3819,1.377,1.377,1.377,0,0,1.3379,1.3407,1.3425,1.3473,1.3497,1.3528,1.3525,1.3558,1.3582,1.3592,1.3633,1.3651,1.3684,1.3726,1.3746,1.3742,1.3806,1.379,1.3791,1.3793,1.3817,1.3822,1.3826,1.3772,1.3772,1.3771,0,0,1.3407,1.3431,1.3463,1.3487,1.3523,1.3541,1.3548,1.3586,1.3599,1.364,1.3649,1.3677,1.373,1.3754,1.3772,1.3811,1.3816,1.382,1.3833,1.3857,1.3861,1.3864,1.3878,1.3883,1.3824,1.3824,1.3824,0,1.341,1.3458,1.3478,1.3512,1.3533,1.3545,1.3578,1.36,1.3643,1.3657,1.3653,1.3721,1.3744,1.3792,1.3802,1.3816,1.3826,1.3816,1.3859,1.3863,1.3866,1.388,1.3885,1.3824,1.3824,1.3824,1.3824,0,1.3461,1.3494,1.3516,1.3559,1.3582,1.3615,1.364,1.3661,1.3671,1.369,1.3731,1.376,1.3797,1.3809,1.3819,1.3859,1.3856,1.3855,1.3846,1.3871,1.3884,1.3889,1.3825,1.3825,1.3824,1.3824,0,0,1.3484,1.3539,1.3547,1.3567,1.3608,1.3634,1.3667,1.3704,1.3722,1.3752,1.3781,1.3826,1.3827,1.3848,1.386,1.3881,1.3911,1.3878,1.3879,1.3883,1.3957,1.3957,1.3963,1.3914,1.3916,1.3916,1.3954,0,1.3517,1.3577,1.3597,1.3647,1.3678,1.3692,1.3721,1.3749,1.3768,1.3796,1.3817,1.3849,1.3846,1.3859,1.3881,1.3902,1.3926,1.39,1.3941,1.3942,1.3932,1.397,1.397,1.4004,1.396,1.396,1.3961,0,1.3563,1.3595,1.3649,1.3687,1.3701,1.3727,1.3763,1.3791,1.3823,1.3835,1.386,1.3871,1.3907,1.3896,1.3945,1.3928,1.3945,1.3959,1.3961,1.3965,1.3953,1.3975,1.4016,1.4021,1.3969,1.3969,1.3968,0,1.3575,1.3631,1.3671,1.3688,1.3733,1.3751,1.3771,1.3803,1.3824,1.3856,1.387,1.3905,1.3924,1.3951,1.3971,1.3962,1.4019,1.401,1.4029,1.4029,1.404,1.4039,1.4084,1.4052,1.4052,1.4052,1.4052,0,1.3609,1.3641,1.3677,1.3701,1.3738,1.3761,1.3796,1.3817,1.3845,1.3874,1.3887,1.3913,1.3939,1.3968,1.3985,1.4023,1.4031,1.4042,1.4046,1.4041,1.4039,1.4052,1.405,1.4053,1.4053,1.4053,1.4053,0,1.3628,1.3653,1.3697,1.3738,1.3749,1.3774,1.3808,1.3832,1.3852,1.3888,1.3897,1.3928,1.3964,1.3987,1.4032,1.4043,1.4085,1.4088,1.4074,1.4076,1.4094,1.4092,1.4149,1.4158,1.412,1.412,1.412,0,1.3648,1.3674,1.3717,1.3738,1.3758,1.379,1.3813,1.3836,1.3859,1.3899,1.3918,1.3955,1.3986,1.4043,1.4068,1.4103,1.4107,1.4125,1.4113,1.4107,1.4108,1.4106,1.4109,1.4127,1.4127,1.4127,1.4127,0,1.3681,1.3693,1.3725,1.3762,1.3789,1.3819,1.3849,1.3865,1.3894,1.3918,1.3956,1.398,1.4027,1.4063,1.4101,1.4121,1.4129,1.4131,1.4138,1.4132,1.4123,1.4129,1.408,1.413,1.413,1.4129,1.4129,1.4129,1.3702,1.3725,1.376,1.3796,1.3821,1.3849,1.3874,1.3898,1.3929,1.397,1.3982,1.4021,1.4054,1.4105,1.4126,1.4157,1.4155,1.4164,1.4166,1.4168,1.4168,1.4119,1.4164,1.4164,1.4164,1.4164,1.4164,0,1.3736,1.3759,1.3792,1.3834,1.3862,1.3869,1.3903,1.3926,1.396,1.3991,1.4021,1.4064,1.41,1.413,1.4167,1.4185,1.419,1.4194,1.4193,1.4197,1.4168,1.4159,1.419,1.419,1.419,1.419,1.419,1.419,1.3757,1.3797,1.3813,1.3866,1.3889,1.3928,1.3947,1.3973,1.3998,1.4046,1.4076,1.4095,1.4126,1.4165,1.4198,1.4206,1.4219,1.4222,1.4231,1.4202,1.4199,1.4197,1.4188,1.4225,1.4225,1.4258,1.4258,1.4258]},{"header":{"parameterUnit":"m.s-1","parameterCategory":1,"la1":30.2991,"la2":30.254,"lo1":-89.0895,"lo2":-89.0444,"dy":0.0017,"dx":0.0017,"nx":28,"ny":28,"refTime":"2026-02-02T03:00:00:Z","depth":0,"parameterNumber":3,"parameterNumberName":"V-component_of_WINDS"},"data":[0,0,0,0,0,0,0,0,0,0,0,0,0,0,0,0,0,0,0,0,0,0,0,0,0,0,0,0,0,0,0,0,0,0,0,0,0,0,0,0,0,0,0,0,0,0,0,0,0,0,0,0,0,0,0,0,0,0,-1.1695,-1.1696,0,-1.1793,-1.1794,-1.1796,-1.1809,-1.1808,-1.1807,-1.1806,-1.1907,-1.1911,-1.1914,0,0,0,0,0,0,0,0,0,0,0,0,0,-1.152,-1.1523,-1.1695,-1.1696,-1.1697,-1.1793,-1.1795,-1.1796,-1.1809,-1.1808,-1.1807,-1.1806,-1.1906,-1.191,-1.1915,0,0,0,0,0,0,0,0,0,0,0,0,0,-1.1605,-1.1524,-1.1695,-1.1715,-1.1718,-1.1793,-1.1795,-1.1796,-1.1809,-1.1808,-1.1806,-1.1805,-1.1905,-1.191,-1.1915,-1.1976,0,0,-1.1931,-1.1934,0,0,0,0,0,0,0,0,-1.16,-1.1611,-1.1711,-1.1714,-1.1717,-1.1787,-1.177,-1.1857,-1.1809,-1.1775,-1.1806,-1.1804,-1.1869,-1.1877,-1.1898,-1.1981,-1.1985,-1.1932,-1.1935,-1.1938,-1.1939,0,0,0,0,0,0,0,-1.1594,-1.1607,-1.1734,-1.1713,-1.1716,-1.172,-1.1731,-1.1786,-1.1828,-1.1778,-1.1779,-1.179,-1.187,-1.1893,-1.1901,-1.1987,-1.1932,-1.1937,-1.194,-1.1942,-1.2126,-1.2128,0,0,0,0,0,0,-1.1584,-1.1602,-1.1731,-1.1737,-1.1654,-1.1724,-1.1736,-1.1766,-1.1828,-1.1836,-1.1791,-1.179,-1.1885,-1.1894,-1.1904,-1.1981,-1.1937,-1.1942,-1.1946,-1.2124,-1.2126,-1.2128,0,0,0,0,0,0,-1.158,-1.1595,-1.1727,-1.167,-1.1687,-1.1729,-1.1763,-1.1769,-1.1792,-1.1838,-1.1846,-1.1807,-1.1884,-1.1897,-1.1959,-1.1984,-1.1945,-1.195,-1.2122,-1.2125,-1.2127,-1.2133,0,0,0,0,0,0,-1.1575,-1.1594,-1.1617,-1.167,-1.169,-1.1779,-1.1764,-1.1772,-1.1801,-1.1801,-1.1855,-1.1862,-1.1884,-1.195,-1.1964,-1.1991,-1.1954,-1.212,-1.2124,-1.2127,-1.2131,-1.2136,-1.214,0,0,0,0,0,-1.1569,-1.1615,-1.1618,-1.1634,-1.172,-1.178,-1.1791,-1.1815,-1.1803,-1.1827,-1.1857,-1.1861,-1.1979,-1.1957,-1.1972,-1.2001,-1.2119,-1.2123,-1.2126,-1.2129,-1.2135,-1.214,0,0,0,0,0,0,-1.1563,-1.1622,-1.1626,-1.1691,-1.173,-1.1782,-1.1813,-1.182,-1.1864,-1.1862,-1.1889,-1.1902,-1.1962,-1.1988,-1.1961,-1.2064,-1.2048,-1.2055,-1.2045,-1.2051,-1.2055,-1.2048,-1.1958,0,0,0,0,0,-1.157,-1.1614,-1.1663,-1.1715,-1.1734,-1.177,-1.1798,-1.1812,-1.1855,-1.1871,-1.1906,-1.1947,-1.1994,-1.2024,-1.2069,-1.2135,-1.2147,-1.2163,-1.2167,-1.217,-1.2176,-1.2214,-1.2222,-1.2141,-1.2141,-1.2141,0,0,-1.1583,-1.162,-1.1646,-1.1714,-1.1747,-1.1793,-1.1784,-1.1832,-1.1867,-1.1879,-1.1939,-1.1966,-1.2014,-1.2078,-1.2108,-1.2102,-1.2201,-1.2175,-1.2178,-1.2182,-1.2219,-1.2226,-1.2233,-1.2143,-1.2143,-1.2142,0,0,-1.163,-1.1663,-1.171,-1.1743,-1.1793,-1.1817,-1.1828,-1.1879,-1.1898,-1.1959,-1.1969,-1.2011,-1.209,-1.2124,-1.2152,-1.2214,-1.222,-1.2229,-1.2251,-1.2288,-1.2294,-1.23,-1.2323,-1.2331,-1.2234,-1.2234,-1.2234,0,-1.1641,-1.1709,-1.1734,-1.1782,-1.1812,-1.1826,-1.1874,-1.1905,-1.1967,-1.1988,-1.1979,-1.2081,-1.2114,-1.2187,-1.2202,-1.2224,-1.2238,-1.2222,-1.2291,-1.2298,-1.2303,-1.2326,-1.2334,-1.2235,-1.2235,-1.2235,-1.2235,0,-1.172,-1.1768,-1.18,-1.186,-1.1893,-1.1942,-1.1974,-1.2005,-1.2018,-1.2043,-1.2106,-1.2146,-1.2201,-1.2219,-1.2231,-1.2295,-1.2289,-1.2286,-1.227,-1.2311,-1.2333,-1.2341,-1.2236,-1.2236,-1.2235,-1.2235,0,0,-1.1765,-1.1839,-1.1851,-1.1878,-1.1935,-1.1972,-1.2022,-1.2075,-1.2102,-1.2145,-1.2187,-1.2255,-1.2253,-1.2284,-1.2301,-1.2333,-1.2381,-1.2326,-1.2328,-1.2335,-1.2454,-1.2456,-1.2466,-1.2385,-1.2387,-1.2388,-1.245,0,-1.182,-1.1908,-1.1932,-1.2007,-1.2052,-1.2066,-1.2109,-1.2149,-1.2174,-1.2216,-1.2244,-1.2292,-1.2285,-1.2305,-1.2337,-1.2368,-1.2405,-1.2364,-1.2426,-1.2428,-1.2413,-1.2477,-1.2479,-1.2535,-1.2459,-1.246,-1.2461,0,-1.1894,-1.1939,-1.2018,-1.207,-1.209,-1.2128,-1.218,-1.222,-1.2266,-1.2282,-1.2318,-1.2332,-1.2385,-1.2367,-1.2441,-1.2412,-1.2439,-1.2459,-1.2461,-1.2468,-1.2447,-1.2485,-1.2554,-1.2562,-1.2474,-1.2473,-1.2472,0,-1.192,-1.2,-1.2058,-1.2082,-1.2143,-1.217,-1.2197,-1.2242,-1.2273,-1.2318,-1.2339,-1.239,-1.2418,-1.2457,-1.2485,-1.2469,-1.2557,-1.2541,-1.2573,-1.2572,-1.259,-1.2589,-1.2664,-1.2607,-1.2607,-1.2607,-1.2607,0,-1.1978,-1.2026,-1.2071,-1.2106,-1.2161,-1.2189,-1.2243,-1.2271,-1.231,-1.2352,-1.2368,-1.2407,-1.2441,-1.2486,-1.2508,-1.2566,-1.2579,-1.2594,-1.2599,-1.2593,-1.2591,-1.261,-1.2607,-1.2609,-1.2609,-1.2608,-1.2608,0,-1.2016,-1.2048,-1.2112,-1.2166,-1.218,-1.2219,-1.2265,-1.2301,-1.2327,-1.238,-1.2394,-1.2435,-1.2488,-1.252,-1.2587,-1.2602,-1.2667,-1.267,-1.2651,-1.2654,-1.2684,-1.268,-1.2775,-1.2789,-1.2722,-1.2722,-1.2723,0,-1.2051,-1.2088,-1.2146,-1.2176,-1.2203,-1.225,-1.2282,-1.2311,-1.2344,-1.24,-1.243,-1.2483,-1.2528,-1.2612,-1.2649,-1.27,-1.2705,-1.2735,-1.2713,-1.2706,-1.2707,-1.2704,-1.2708,-1.2738,-1.2739,-1.2739,-1.274,0,-1.211,-1.2124,-1.2169,-1.2221,-1.2258,-1.23,-1.2342,-1.2365,-1.2402,-1.2438,-1.2493,-1.2527,-1.2596,-1.265,-1.2705,-1.2734,-1.2744,-1.2747,-1.2757,-1.275,-1.2738,-1.2746,-1.2661,-1.2744,-1.2744,-1.2743,-1.2743,-1.2743,-1.2147,-1.2182,-1.2228,-1.2279,-1.2313,-1.2353,-1.2389,-1.242,-1.2466,-1.2524,-1.2539,-1.2597,-1.2643,-1.2718,-1.2748,-1.2794,-1.279,-1.2804,-1.2808,-1.2811,-1.2812,-1.2731,-1.2804,-1.2804,-1.2804,-1.2804,-1.2804,0,-1.2207,-1.2238,-1.2284,-1.2343,-1.2383,-1.2389,-1.2436,-1.2469,-1.2519,-1.2562,-1.2606,-1.2669,-1.2722,-1.2763,-1.2817,-1.2846,-1.2852,-1.2859,-1.2857,-1.2864,-1.2813,-1.2799,-1.2854,-1.2854,-1.2854,-1.2853,-1.2853,-1.2853,-1.2243,-1.2302,-1.2322,-1.2399,-1.243,-1.2486,-1.2512,-1.2549,-1.2583,-1.2653,-1.2697,-1.2724,-1.2766,-1.2824,-1.2873,-1.2884,-1.2903,-1.291,-1.2922,-1.2873,-1.2867,-1.2862,-1.2849,-1.2914,-1.2914,-1.2969,-1.297,-1.297]}]]